Weather reports worldwide

Advertisment
Luqa, Malta (16597): temperature & dewpoint: 26.10.2020 01:00:00 - 01.11.2020 01:00:00 (CET)Luqa, Malta (16597): wind speed: 26.10.2020 01:00:00 - 01.11.2020 01:00:00 (CET)Luqa, Malta (16597): wind direction: 26.10.2020 01:00:00 - 01.11.2020 01:00:00 (CET)Luqa, Malta (16597): reduced air pressure: 26.10.2020 01:00:00 - 01.11.2020 01:00:00 (CET)Luqa, Malta (16597): visibility: 26.10.2020 01:00:00 - 01.11.2020 01:00:00 (CET)
Date & Time tt [°C] td [°C] ff [km/h] ff [kn] dd ppp [hPa] vv [km]
01.11.2020 01:00:00 16,4 14,9 11 6 WNW 1023,0 10
01.11.2020 00:00:00 17,0 15,0 9 5 WNW - 10
31.10.2020 23:00:00 17,0 15,0 11 6 WNW - 10
31.10.2020 22:00:00 16,5 14,4 11 6 WNW 1023,1 10
31.10.2020 21:00:00 17,0 15,0 8 4 WNW - 10
31.10.2020 20:00:00 17,0 15,0 8 4 NW - 10
31.10.2020 19:00:00 17,7 14,8 8 4 NW 1023,2 10
31.10.2020 18:00:00 19,0 15,0 8 4 NNW - 10
31.10.2020 17:00:00 19,0 15,0 9 5 N - 10
31.10.2020 16:00:00 21,5 14,4 11 6 N 1022,7 10
31.10.2020 15:00:00 22,0 15,0 9 5 NNE - 10
31.10.2020 14:00:00 22,0 15,0 8 4 N - 10
31.10.2020 13:00:00 22,0 15,6 11 6 NNE 1023,3 10
31.10.2020 12:00:00 22,0 16,0 11 6 NNE - 10
31.10.2020 11:00:00 21,0 16,0 8 4 NE - 10
31.10.2020 10:00:00 21,7 15,5 8 4 ENE 1024,2 10
31.10.2020 09:00:00 21,0 15,0 9 5 E - 10
31.10.2020 08:00:00 20,0 16,0 4 2 - - 10
31.10.2020 07:00:00 15,1 14,2 2 1 ENE 1023,8 10
31.10.2020 06:00:00 15,0 14,0 2 1 NNE - 10
31.10.2020 05:00:00 15,0 14,0 4 2 - - 10
31.10.2020 04:00:00 15,1 13,9 2 1 WNW 1023,3 10
31.10.2020 03:00:00 15,0 14,0 4 2 W - 10
31.10.2020 02:00:00 15,0 14,0 4 2 W - 10
31.10.2020 01:00:00 16,2 14,3 5 3 WNW 1023,7 10
31.10.2020 00:00:00 17,0 15,0 8 4 WNW - 10
30.10.2020 23:00:00 17,0 15,0 9 5 WNW - 10
30.10.2020 22:00:00 17,1 14,7 11 6 NW 1023,8 10
30.10.2020 21:00:00 18,0 14,0 11 6 NW - 10
30.10.2020 20:00:00 17,0 14,0 11 6 NW - 10
30.10.2020 19:00:00 18,5 13,4 9 5 NW 1023,0 10
30.10.2020 18:00:00 19,0 13,0 13 7 N - 10
30.10.2020 17:00:00 19,0 13,0 13 7 N - 10
30.10.2020 16:00:00 21,0 13,6 18 10 NNW 1022,1 10
30.10.2020 15:00:00 21,0 14,0 16 9 N - 10
30.10.2020 14:00:00 22,0 15,0 21 11 N - 10
30.10.2020 13:00:00 21,8 15,2 21 11 NNW 1022,4 10
30.10.2020 12:00:00 21,0 16,0 18 10 N - 10
30.10.2020 11:00:00 22,0 15,0 21 11 NW - 10
30.10.2020 10:00:00 21,1 15,3 21 11 NW 1023,4 10
30.10.2020 09:00:00 20,0 15,0 18 10 NW - 10
30.10.2020 08:00:00 20,0 15,0 9 5 WNW - 10
30.10.2020 07:00:00 17,4 14,1 11 6 WNW 1022,8 10
30.10.2020 06:00:00 17,0 14,0 11 6 WNW - 10
30.10.2020 05:00:00 17,0 15,0 13 7 WNW - 10
30.10.2020 04:00:00 17,0 14,9 13 7 NW 1022,2 10
30.10.2020 03:00:00 17,0 15,0 13 7 NW - 10
30.10.2020 02:00:00 17,0 15,0 16 9 NW - 10
30.10.2020 01:00:00 17,5 15,3 21 11 NW 1022,9 10
30.10.2020 00:00:00 18,0 15,0 22 12 NW - 10
29.10.2020 23:00:00 18,0 15,0 18 10 NW - 10
29.10.2020 22:00:00 18,2 15,4 18 10 NW 1022,9 10
29.10.2020 21:00:00 18,0 15,0 15 8 NW - 10
29.10.2020 20:00:00 18,0 15,0 16 9 NW - 10
29.10.2020 19:00:00 17,8 14,3 11 6 NW 1022,4 10
29.10.2020 18:00:00 18,0 14,0 16 9 NW - 10
29.10.2020 17:00:00 19,0 13,0 22 12 NW - 10
29.10.2020 16:00:00 20,2 12,8 29 16 NW 1021,2 10
29.10.2020 15:00:00 21,0 11,0 24 13 WNW - 10
29.10.2020 14:00:00 21,0 12,0 26 14 NW - 10
29.10.2020 13:00:00 21,3 11,6 31 17 NW 1021,7 10
29.10.2020 12:00:00 22,0 10,0 22 12 NNW - 10
29.10.2020 11:00:00 21,0 11,0 22 12 NNW - 10
29.10.2020 10:00:00 20,3 12,0 24 13 NW 1022,3 10
29.10.2020 09:00:00 20,0 12,0 28 15 NW - 10
29.10.2020 08:00:00 19,0 12,0 16 9 NW - 10
29.10.2020 07:00:00 15,4 11,0 15 8 NW 1020,8 10
29.10.2020 06:00:00 16,0 11,0 15 8 NW - 10
29.10.2020 05:00:00 16,0 11,0 18 10 NW - 10
29.10.2020 04:00:00 16,1 10,4 21 11 NW 1020,0 10
29.10.2020 03:00:00 16,0 10,0 22 12 NW - 10
29.10.2020 02:00:00 17,0 11,0 24 13 NW - 10
29.10.2020 01:00:00 16,6 11,4 24 13 NW 1019,7 10
29.10.2020 00:00:00 17,0 11,0 26 14 NW - 10
28.10.2020 23:00:00 17,0 12,0 26 14 NW - 10
28.10.2020 22:00:00 17,5 11,8 22 12 NW 1019,5 10
28.10.2020 21:00:00 17,0 12,0 21 11 NW - 10
28.10.2020 20:00:00 18,0 12,0 28 15 NW - 10
28.10.2020 19:00:00 17,9 12,6 31 17 NW 1018,3 10
28.10.2020 18:00:00 18,0 12,0 26 14 NW - 10
28.10.2020 17:00:00 18,0 12,0 29 16 NW - 10
28.10.2020 16:00:00 18,9 10,6 31 17 NW 1016,8 10
28.10.2020 15:00:00 20,0 10,0 35 19 NW - 10
28.10.2020 14:00:00 20,0 10,0 37 20 NW - 10
28.10.2020 13:00:00 20,2 10,1 41 22 NW 1016,3 10
28.10.2020 12:00:00 20,0 9,0 39 21 NW - 10
28.10.2020 11:00:00 20,0 10,0 41 22 NW - 10
28.10.2020 10:00:00 19,4 9,7 39 21 NW 1016,2 10
28.10.2020 09:00:00 19,0 10,0 41 22 NW - 10
28.10.2020 08:00:00 18,0 11,0 24 13 NW - 10
28.10.2020 07:00:00 17,0 13,3 24 13 NW 1014,8 10
28.10.2020 06:00:00 15,0 10,0 21 11 NW - 10
28.10.2020 05:00:00 15,0 10,0 22 12 NW - 10
28.10.2020 04:00:00 13,9 10,8 15 8 WNW 1014,5 10
28.10.2020 03:00:00 16,0 11,0 21 11 NW - 10
28.10.2020 02:00:00 16,0 10,0 24 13 NW - 10
28.10.2020 01:00:00 16,4 10,0 26 14 NW 1014,6 10
28.10.2020 00:00:00 17,0 10,0 28 15 NW - 10
27.10.2020 23:00:00 17,0 10,0 31 17 NW - 10
27.10.2020 22:00:00 16,9 10,6 26 14 NW 1014,6 10
27.10.2020 21:00:00 17,0 10,0 31 17 NW - 10
27.10.2020 20:00:00 17,0 11,0 29 16 NW - 10
27.10.2020 19:00:00 22,8 15,8 29 16 NW 1013,7 10
27.10.2020 18:00:00 16,0 12,0 22 12 NW - 10
27.10.2020 17:00:00 17,0 12,0 22 12 NW - 10
27.10.2020 16:00:00 17,5 12,9 16 9 NW 1013,6 10
27.10.2020 15:00:00 19,0 12,0 26 14 NW - 10
27.10.2020 14:00:00 20,0 13,0 35 19 NW - 10
27.10.2020 13:00:00 20,8 12,5 35 19 NW 1013,8 10
27.10.2020 12:00:00 21,0 12,0 34 18 NW - 10
27.10.2020 11:00:00 20,0 15,0 31 17 NNW - 10
27.10.2020 10:00:00 19,2 16,2 31 17 NW 1014,1 10
27.10.2020 09:00:00 18,0 17,0 16 9 NNW - 10
27.10.2020 08:00:00 23,0 17,0 16 9 SSW - 10
27.10.2020 07:00:00 21,2 16,4 13 7 SSW 1012,8 10
27.10.2020 06:00:00 21,0 16,0 13 7 SSW - 10
27.10.2020 05:00:00 20,0 17,0 15 8 S - 10
27.10.2020 04:00:00 20,4 16,4 13 7 S 1013,1 10
27.10.2020 03:00:00 20,0 16,0 11 6 S - 10
27.10.2020 02:00:00 19,0 15,0 13 7 S - 10
27.10.2020 01:00:00 19,8 14,1 13 7 S 1014,6 10
27.10.2020 00:00:00 20,0 14,0 9 5 SSW - 10
26.10.2020 23:00:00 19,0 15,0 9 5 S - 10
26.10.2020 22:00:00 19,5 14,6 11 6 S 1015,6 10
26.10.2020 21:00:00 19,0 14,0 8 4 S - 10
26.10.2020 20:00:00 19,0 15,0 9 5 S - 10
26.10.2020 19:00:00 19,2 14,3 8 4 S 1015,7 10
26.10.2020 18:00:00 19,0 14,0 5 3 SSW - 10
26.10.2020 17:00:00 20,0 14,0 8 4 SW - 10
26.10.2020 16:00:00 21,5 14,3 9 5 SW 1015,6 10
26.10.2020 15:00:00 22,0 14,0 11 6 SW - 10
26.10.2020 14:00:00 23,0 14,0 15 8 W - 10
26.10.2020 13:00:00 22,1 14,4 5 3 ENE 1016,8 10
26.10.2020 12:00:00 23,0 14,0 5 3 - - 10
26.10.2020 11:00:00 23,0 15,0 8 4 - - 10
26.10.2020 10:00:00 22,0 14,1 5 3 N 1018,1 10
26.10.2020 09:00:00 21,0 14,0 4 2 - - 10
26.10.2020 08:00:00 20,0 15,0 4 2 NW - 10
26.10.2020 07:00:00 15,8 13,0 8 4 WNW 1017,8 10
26.10.2020 06:00:00 16,0 13,0 8 4 WNW - 10
26.10.2020 05:00:00 17,0 13,0 9 5 WNW - 10
26.10.2020 04:00:00 17,0 12,9 15 8 WNW 1017,8 10
26.10.2020 03:00:00 16,0 13,0 13 7 NW - 10
26.10.2020 02:00:00 17,0 13,0 13 7 WNW - 10
26.10.2020 01:00:00 16,7 12,4 9 5 NW 1018,7 10

tt = temperature
td = dewpoint
ff = wind speed
dd = wind direction
ppp = reduced air pressure
vv = visibility

Next stations